Torna al catalogo

STARLINK-36440

AttivoComunicazioniVLEO
NORAD 67447·PAYLOAD·🇺🇸 United States

Lanciato Jan 14, 2026 da Cape Canaveral Space Force Station

Loading…

Prossimi Passaggi (prossime 24 ore)

TLE

AggiornatoSource: CelesTrak SupGP

Epoca: Sep 14, 2026, 21:41 UTC

1 67447C 26008C   26257.90395833  .00026250  00000+0  95063-3 0  2573
2 67447  42.9996 216.2865 0001334 265.6345 112.0092 15.27569953    19

Traccia STARLINK-36440 in tempo reale con AllMySat

Download on the App Store